Time,TemperatureF,DewpointF,PressureIn,WindDirection,WindDirectionDegrees,WindSpeedMPH,WindSpeedGustMPH,Humidity,HourlyPrecipIn,Conditions,Clouds,dailyrainin,SoftwareType,DateUTC
2013-02-27 06:19:00,38.8,28.1,29.41,NNW,330,3.1,3.1,65,0.00,,---,0.00,VWS V13.01,2013-02-27 12:19:00,
2013-02-27 06:20:00,38.8,28.1,29.41,NW,313,5.4,5.8,65,0.00,,---,0.00,VWS V13.01,2013-02-27 12:20:00,
2013-02-27 06:24:00,38.8,28.5,29.41,NNW,329,3.6,5.8,66,0.00,,---,0.00,VWS V13.01,2013-02-27 12:24:00,
2013-02-27 06:29:00,38.8,28.5,29.41,NNW,342,3.6,4.0,66,0.00,,---,0.00,VWS V13.01,2013-02-27 12:29:00,
2013-02-27 06:34:00,38.7,28.3,29.41,NW,316,0.0,3.6,66,0.00,,---,0.00,VWS V13.01,2013-02-27 12:34:00,
2013-02-27 06:39:00,38.7,28.3,29.41,North,353,3.6,3.6,66,0.00,,---,0.00,VWS V13.01,2013-02-27 12:39:00,
2013-02-27 06:44:00,38.7,28.7,29.41,North,0,4.9,8.1,67,0.00,,---,0.00,VWS V13.01,2013-02-27 12:44:00,
2013-02-27 06:49:00,38.7,28.7,29.41,NNW,339,3.6,5.4,67,0.00,,---,0.00,VWS V13.01,2013-02-27 12:49:00,
2013-02-27 06:54:00,38.7,28.7,29.41,NNW,339,5.8,5.8,67,0.00,,---,0.00,VWS V13.01,2013-02-27 12:54:00,
2013-02-27 06:59:00,38.5,28.9,29.41,WNW,282,4.9,8.1,68,0.00,,---,0.00,VWS V13.01,2013-02-27 12:59:00,
2013-02-27 07:04:00,38.5,28.9,29.41,NNW,337,3.6,7.6,68,0.00,,---,0.00,VWS V13.01,2013-02-27 13:04:00,
2013-02-27 07:09:00,38.5,28.9,29.44,WNW,299,4.0,8.1,68,0.00,,---,0.00,VWS V13.01,2013-02-27 13:09:00,
2013-02-27 07:14:00,38.5,28.9,29.44,WNW,286,4.0,5.8,68,0.00,,---,0.00,VWS V13.01,2013-02-27 13:14:00,
2013-02-27 07:19:00,38.7,29.0,29.44,WNW,296,4.9,6.3,68,0.00,,---,0.00,VWS V13.01,2013-02-27 13:19:00,
2013-02-27 07:24:00,38.7,29.4,29.44,North,353,3.1,10.1,69,0.00,,---,0.00,VWS V13.01,2013-02-27 13:24:00,
2013-02-27 07:29:00,39.0,29.7,29.44,NW,304,3.6,5.4,69,0.00,,---,0.00,VWS V13.01,2013-02-27 13:29:00,
2013-02-27 07:34:00,39.2,29.5,29.44,WNW,298,2.7,6.3,68,0.00,,---,0.00,VWS V13.01,2013-02-27 13:34:00,
2013-02-27 07:39:00,39.6,29.9,29.44,NNW,344,3.6,5.8,68,0.00,,---,0.00,VWS V13.01,2013-02-27 13:39:00,
2013-02-27 07:44:00,39.7,29.7,29.44,NW,312,5.8,5.8,67,0.00,,---,0.00,VWS V13.01,2013-02-27 13:44:00,
2013-02-27 07:49:00,39.7,29.7,29.44,NW,324,5.4,5.4,67,0.00,,---,0.00,VWS V13.01,2013-02-27 13:49:00,
2013-02-27 07:54:00,39.7,29.7,29.44,WNW,298,7.2,7.2,67,0.00,,---,0.00,VWS V13.01,2013-02-27 13:54:00,
2013-02-27 07:59:00,39.7,29.7,29.44,WNW,298,7.2,7.2,67,0.00,,---,0.00,VWS V13.01,2013-02-27 13:59:00,
2013-02-27 08:04:00,40.5,30.4,29.47,WNW,298,7.2,7.2,67,0.00,,---,0.00,VWS V13.01,2013-02-27 14:04:00,
2013-02-27 08:09:00,40.5,30.4,29.47,NNW,345,2.7,3.1,67,0.00,,---,0.00,VWS V13.01,2013-02-27 14:09:00,
2013-02-27 08:14:00,40.5,30.4,29.47,North,353,5.4,5.4,67,0.00,,---,0.00,VWS V13.01,2013-02-27 14:14:00,
2013-02-27 08:19:00,40.5,30.4,29.47,NW,323,6.3,6.3,67,0.00,,---,0.00,VWS V13.01,2013-02-27 14:19:00,
2013-02-27 08:24:00,40.5,30.4,29.47,NW,323,6.3,6.3,67,0.00,,---,0.00,VWS V13.01,2013-02-27 14:24:00,
2013-02-27 08:29:00,40.5,30.4,29.47,North,353,3.1,3.1,67,0.00,,---,0.00,VWS V13.01,2013-02-27 14:29:00,
2013-02-27 08:34:00,40.5,30.4,29.47,NNW,344,0.0,0.0,67,0.00,,---,0.00,VWS V13.01,2013-02-27 14:34:00,
2013-02-27 08:39:00,40.5,30.4,29.47,North,11,5.8,5.8,67,0.00,,---,0.00,VWS V13.01,2013-02-27 14:39:00,
2013-02-27 08:44:00,40.5,30.4,29.47,WNW,287,2.2,5.8,67,0.00,,---,0.00,VWS V13.01,2013-02-27 14:44:00,
2013-02-27 08:49:00,40.5,30.4,29.47,North,8,6.3,6.3,67,0.00,,---,0.00,VWS V13.01,2013-02-27 14:49:00,
2013-02-27 08:54:00,40.5,30.4,29.47,WNW,303,4.0,4.0,67,0.00,,---,0.00,VWS V13.01,2013-02-27 14:54:00,
2013-02-27 08:59:00,40.5,30.4,29.47,North,2,3.1,3.1,67,0.00,,---,0.00,VWS V13.01,2013-02-27 14:59:00,
2013-02-27 09:04:00,40.5,30.4,29.47,WNW,301,5.8,5.8,67,0.00,,---,0.00,VWS V13.01,2013-02-27 15:04:00,
2013-02-27 09:09:00,40.5,30.4,29.47,WNW,301,5.8,5.8,67,0.00,,---,0.00,VWS V13.01,2013-02-27 15:09:00,
2013-02-27 09:14:00,40.5,30.4,29.47,NW,321,3.6,3.6,67,0.00,,---,0.00,VWS V13.01,2013-02-27 15:14:00,
2013-02-27 09:19:00,40.5,30.4,29.47,NW,308,4.0,4.0,67,0.00,,---,0.00,VWS V13.01,2013-02-27 15:19:00,
2013-02-27 09:24:00,40.5,30.4,29.47,NW,308,4.0,4.0,67,0.00,,---,0.00,VWS V13.01,2013-02-27 15:24:00,
2013-02-27 09:29:00,40.5,30.4,29.47,WNW,296,8.1,8.1,67,0.00,,---,0.00,VWS V13.01,2013-02-27 15:29:00,
2013-02-27 09:34:00,40.5,30.4,29.47,WNW,296,8.1,8.1,67,0.00,,---,0.00,VWS V13.01,2013-02-27 15:34:00,
2013-02-27 09:39:00,40.5,30.4,29.47,WNW,283,5.8,5.8,67,0.00,,---,0.00,VWS V13.01,2013-02-27 15:39:00,
2013-02-27 09:44:00,40.5,30.4,29.47,WNW,283,5.8,5.8,67,0.00,,---,0.00,VWS V13.01,2013-02-27 15:44:00,
2013-02-27 09:49:00,40.5,30.4,29.47,NW,306,8.1,8.1,67,0.00,,---,0.00,VWS V13.01,2013-02-27 15:49:00,
2013-02-27 09:54:00,40.5,30.4,29.47,West,278,10.5,10.5,67,0.00,,---,0.00,VWS V13.01,2013-02-27 15:54:00,
2013-02-27 09:59:00,40.5,30.4,29.47,West,278,10.5,10.5,67,0.00,,---,0.00,VWS V13.01,2013-02-27 15:59:00,
2013-02-27 10:04:00,40.5,30.4,29.47,NW,307,4.0,4.0,67,0.00,,---,0.00,VWS V13.01,2013-02-27 16:04:00,
2013-02-27 10:09:00,53.1,28.1,29.47,NW,307,4.0,4.0,38,0.00,,---,0.00,VWS V13.01,2013-02-27 16:09:00,
2013-02-27 10:14:00,53.1,28.1,29.47,NW,314,4.0,5.4,38,0.00,,---,0.00,VWS V13.01,2013-02-27 16:14:00,
2013-02-27 10:19:00,53.1,28.1,29.47,WNW,289,10.1,10.1,38,0.00,,---,0.00,VWS V13.01,2013-02-27 16:19:00,
2013-02-27 10:24:00,53.1,28.1,29.47,WNW,303,6.3,6.3,38,0.00,,---,0.00,VWS V13.01,2013-02-27 16:24:00,
2013-02-27 10:29:00,53.1,28.1,29.47,NNW,333,6.3,6.3,38,0.00,,---,0.00,VWS V13.01,2013-02-27 16:29:00,
2013-02-27 10:34:00,53.1,28.1,29.47,WNW,296,10.5,10.5,38,0.00,,---,0.00,VWS V13.01,2013-02-27 16:34:00,
2013-02-27 10:39:00,53.1,28.1,29.47,WNW,294,2.7,2.7,38,0.00,,---,0.00,VWS V13.01,2013-02-27 16:39:00,
2013-02-27 10:44:00,53.1,28.1,29.47,WNW,294,2.7,2.7,38,0.00,,---,0.00,VWS V13.01,2013-02-27 16:44:00,
2013-02-27 10:49:00,54.3,28.0,29.47,NW,304,3.1,7.6,36,0.00,,---,0.00,VWS V13.01,2013-02-27 16:49:00,
2013-02-27 10:54:00,54.3,28.0,29.47,WSW,251,11.0,11.0,36,0.00,,---,0.00,VWS V13.01,2013-02-27 16:54:00,
2013-02-27 10:59:00,54.3,28.0,29.47,WNW,293,7.6,7.6,36,0.00,,---,0.00,VWS V13.01,2013-02-27 16:59:00,
2013-02-27 11:04:00,54.3,28.0,29.47,WNW,299,7.6,7.6,36,0.00,,---,0.00,VWS V13.01,2013-02-27 17:04:00,
2013-02-27 11:09:00,54.3,28.0,29.47,WNW,298,7.6,7.6,36,0.00,,---,0.00,VWS V13.01,2013-02-27 17:09:00,
2013-02-27 11:14:00,54.3,28.0,29.47,WNW,289,13.2,13.2,36,0.00,,---,0.00,VWS V13.01,2013-02-27 17:14:00,
2013-02-27 11:19:00,54.3,28.0,29.47,West,281,2.7,2.7,36,0.00,,---,0.00,VWS V13.01,2013-02-27 17:19:00,
2013-02-27 11:24:00,55.8,28.5,29.47,NW,321,9.6,9.6,35,0.00,,---,0.00,VWS V13.01,2013-02-27 17:24:00,
2013-02-27 11:29:00,55.8,28.5,29.47,WNW,300,7.6,9.6,35,0.00,,---,0.00,VWS V13.01,2013-02-27 17:29:00,
2013-02-27 11:34:00,55.8,28.5,29.47,North,350,4.0,4.0,35,0.00,,---,0.00,VWS V13.01,2013-02-27 17:34:00,
2013-02-27 11:39:00,55.8,28.5,29.47,WNW,288,10.1,10.1,35,0.00,,---,0.00,VWS V13.01,2013-02-27 17:39:00,
2013-02-27 11:44:00,55.8,28.5,29.47,NW,311,5.4,5.4,35,0.00,,---,0.00,VWS V13.01,2013-02-27 17:44:00,
2013-02-27 11:49:00,55.8,28.5,29.47,WNW,291,8.3,8.3,35,0.00,,---,0.00,VWS V13.01,2013-02-27 17:49:00,
2013-02-27 11:54:00,55.8,28.5,29.47,WNW,296,8.1,8.1,35,0.00,,---,0.00,VWS V13.01,2013-02-27 17:54:00,
2013-02-27 11:59:00,56.5,28.5,29.47,WNW,296,8.3,8.3,34,0.00,,---,0.00,VWS V13.01,2013-02-27 17:59:00,
2013-02-27 12:04:00,56.3,27.6,29.47,WNW,298,8.1,8.1,33,0.00,,---,0.00,VWS V13.01,2013-02-27 18:04:00,
2013-02-27 12:09:00,56.3,27.6,29.47,NW,318,12.8,12.8,33,0.00,,---,0.00,VWS V13.01,2013-02-27 18:09:00,
2013-02-27 12:14:00,56.3,27.6,29.47,WNW,299,11.9,11.9,33,0.00,,---,0.00,VWS V13.01,2013-02-27 18:14:00,
2013-02-27 12:19:00,56.3,27.6,29.47,NW,308,3.6,3.6,33,0.00,,---,0.00,VWS V13.01,2013-02-27 18:19:00,
2013-02-27 12:24:00,56.3,27.6,29.47,WNW,287,4.0,4.0,33,0.00,,---,0.00,VWS V13.01,2013-02-27 18:24:00,
2013-02-27 12:29:00,56.3,27.6,29.47,WSW,247,6.3,6.3,33,0.00,,---,0.00,VWS V13.01,2013-02-27 18:29:00,
2013-02-27 12:34:00,56.3,27.6,29.47,West,272,10.5,10.5,33,0.00,,---,0.00,VWS V13.01,2013-02-27 18:34:00,
2013-02-27 12:39:00,57.2,24.4,29.47,WNW,283,12.3,12.3,28,0.00,,---,0.00,VWS V13.01,2013-02-27 18:39:00,
2013-02-27 12:44:00,57.2,25.2,29.47,West,266,8.7,8.7,29,0.00,,---,0.00,VWS V13.01,2013-02-27 18:44:00,
2013-02-27 12:49:00,57.2,25.2,29.47,North,353,7.6,8.7,29,0.00,,---,0.00,VWS V13.01,2013-02-27 18:49:00,
2013-02-27 12:54:00,57.2,25.2,29.47,WNW,294,7.6,7.6,29,0.00,,---,0.00,VWS V13.01,2013-02-27 18:54:00,
2013-02-27 12:59:00,57.2,25.2,29.47,West,280,5.4,5.4,29,0.00,,---,0.00,VWS V13.01,2013-02-27 18:59:00,
2013-02-27 13:04:00,57.2,25.2,29.47,WNW,303,12.8,12.8,29,0.00,,---,0.00,VWS V13.01,2013-02-27 19:04:00,
2013-02-27 13:09:00,57.9,25.0,29.47,NW,326,13.2,13.2,28,0.00,,---,0.00,VWS V13.01,2013-02-27 19:09:00,
2013-02-27 13:14:00,57.7,24.0,29.47,West,261,8.3,8.3,27,0.00,,---,0.00,VWS V13.01,2013-02-27 19:14:00,
2013-02-27 13:19:00,57.7,24.0,29.47,WNW,288,8.1,8.1,27,0.00,,---,0.00,VWS V13.01,2013-02-27 19:19:00,
2013-02-27 13:24:00,57.7,24.0,29.47,WNW,302,5.8,5.8,27,0.00,,---,0.00,VWS V13.01,2013-02-27 19:24:00,
2013-02-27 13:29:00,57.2,23.5,29.47,WNW,301,5.4,5.4,27,0.00,,---,0.00,VWS V13.01,2013-02-27 19:29:00,
2013-02-27 13:34:00,57.2,23.5,29.47,WNW,298,8.1,8.1,27,0.00,,---,0.00,VWS V13.01,2013-02-27 19:34:00,
2013-02-27 13:39:00,57.2,23.5,29.47,WNW,294,13.2,13.2,27,0.00,,---,0.00,VWS V13.01,2013-02-27 19:39:00,
2013-02-27 13:44:00,57.2,23.5,29.47,WSW,246,11.0,11.0,27,0.00,,---,0.00,VWS V13.01,2013-02-27 19:44:00,
2013-02-27 13:49:00,57.2,23.5,29.47,West,279,10.5,10.5,27,0.00,,---,0.00,VWS V13.01,2013-02-27 19:49:00,
2013-02-27 13:54:00,57.2,23.5,29.47,West,279,10.5,10.5,27,0.00,,---,0.00,VWS V13.01,2013-02-27 19:54:00,
2013-02-27 13:59:00,57.2,23.5,29.47,West,279,10.5,10.5,27,0.00,,---,0.00,VWS V13.01,2013-02-27 19:59:00,
2013-02-27 14:04:00,57.2,23.5,29.47,WNW,297,5.4,5.4,27,0.00,,---,0.00,VWS V13.01,2013-02-27 20:04:00,
2013-02-27 14:09:00,57.2,23.5,29.47,West,268,8.3,8.3,27,0.00,,---,0.00,VWS V13.01,2013-02-27 20:09:00,
2013-02-27 14:14:00,57.2,23.5,29.47,West,268,8.3,8.3,27,0.00,,---,0.00,VWS V13.01,2013-02-27 20:14:00,
2013-02-27 14:19:00,57.2,24.4,29.47,West,268,8.3,8.3,28,0.00,,---,0.00,VWS V13.01,2013-02-27 20:19:00,
2013-02-27 14:24:00,57.2,24.4,29.47,West,268,8.3,8.3,28,0.00,,---,0.00,VWS V13.01,2013-02-27 20:24:00,
2013-02-27 14:29:00,57.2,24.4,29.47,West,268,8.3,8.3,28,0.00,,---,0.00,VWS V13.01,2013-02-27 20:29:00,
2013-02-27 14:34:00,57.2,24.4,29.47,West,268,8.3,8.3,28,0.00,,---,0.00,VWS V13.01,2013-02-27 20:34:00,
2013-02-27 14:39:00,57.2,24.4,29.47,West,268,8.3,8.3,28,0.00,,---,0.00,VWS V13.01,2013-02-27 20:39:00,
2013-02-27 14:44:00,57.0,25.1,29.47,West,268,8.3,8.3,29,0.00,,---,0.00,VWS V13.01,2013-02-27 20:44:00,
2013-02-27 14:49:00,57.0,25.1,29.47,West,268,8.3,8.3,29,0.00,,---,0.00,VWS V13.01,2013-02-27 20:49:00,
2013-02-27 14:54:00,57.0,25.1,29.47,West,268,8.3,8.3,29,0.00,,---,0.00,VWS V13.01,2013-02-27 20:54:00,
2013-02-27 14:59:00,56.7,24.8,29.47,West,268,8.3,8.3,29,0.00,,---,0.00,VWS V13.01,2013-02-27 20:59:00,
2013-02-27 15:04:00,56.7,24.8,29.50,West,268,8.3,8.3,29,0.00,,---,0.00,VWS V13.01,2013-02-27 21:04:00,
2013-02-27 15:09:00,56.7,24.8,29.50,WNW,283,8.3,8.3,29,0.00,,---,0.00,VWS V13.01,2013-02-27 21:09:00,
2013-02-27 15:14:00,56.7,24.8,29.50,WNW,283,8.3,8.3,29,0.00,,---,0.00,VWS V13.01,2013-02-27 21:14:00,
2013-02-27 15:19:00,56.7,24.8,29.50,NW,308,11.0,11.0,29,0.00,,---,0.00,VWS V13.01,2013-02-27 21:19:00,
2013-02-27 15:24:00,56.7,24.0,29.50,NW,308,11.0,11.0,28,0.00,,---,0.00,VWS V13.01,2013-02-27 21:24:00,
2013-02-27 15:29:00,56.5,23.8,29.50,WNW,298,8.3,8.3,28,0.00,,---,0.00,VWS V13.01,2013-02-27 21:29:00,
2013-02-27 15:34:00,56.5,24.6,29.50,WNW,298,8.3,8.3,29,0.00,,---,0.00,VWS V13.01,2013-02-27 21:34:00,
2013-02-27 15:39:00,56.1,24.3,29.50,WNW,287,10.1,10.1,29,0.00,,---,0.00,VWS V13.01,2013-02-27 21:39:00,
2013-02-27 15:44:00,56.1,24.3,29.50,WNW,287,10.1,10.1,29,0.00,,---,0.00,VWS V13.01,2013-02-27 21:44:00,
2013-02-27 15:49:00,56.1,23.5,29.50,West,264,8.3,8.3,28,0.00,,---,0.00,VWS V13.01,2013-02-27 21:49:00,
2013-02-27 15:54:00,56.1,23.5,29.50,West,264,8.3,8.3,28,0.00,,---,0.00,VWS V13.01,2013-02-27 21:54:00,
2013-02-27 15:59:00,56.1,23.5,29.50,West,264,8.3,8.3,28,0.00,,---,0.00,VWS V13.01,2013-02-27 21:59:00,
2013-02-27 16:04:00,56.1,24.3,29.50,NW,306,11.0,11.0,29,0.00,,---,0.00,VWS V13.01,2013-02-27 22:04:00,
2013-02-27 16:09:00,56.1,23.5,29.50,WNW,294,15.0,15.0,28,0.00,,---,0.00,VWS V13.01,2013-02-27 22:09:00,
2013-02-27 16:14:00,55.9,23.3,29.50,WNW,294,15.0,15.0,28,0.00,,---,0.00,VWS V13.01,2013-02-27 22:14:00,
2013-02-27 16:19:00,55.9,23.3,29.50,WNW,294,15.0,15.0,28,0.00,,---,0.00,VWS V13.01,2013-02-27 22:19:00,
2013-02-27 16:24:00,55.9,23.3,29.50,NW,313,9.6,15.0,28,0.00,,---,0.00,VWS V13.01,2013-02-27 22:24:00,
2013-02-27 16:29:00,55.9,23.3,29.50,NW,313,9.6,9.6,28,0.00,,---,0.00,VWS V13.01,2013-02-27 22:29:00,
2013-02-27 16:34:00,55.9,23.3,29.50,NW,313,9.6,9.6,28,0.00,,---,0.00,VWS V13.01,2013-02-27 22:34:00,
2013-02-27 16:39:00,55.9,23.3,29.50,NW,313,9.6,9.6,28,0.00,,---,0.00,VWS V13.01,2013-02-27 22:39:00,
2013-02-27 16:44:00,55.9,23.3,29.50,NW,313,9.6,9.6,28,0.00,,---,0.00,VWS V13.01,2013-02-27 22:44:00,
2013-02-27 16:49:00,55.8,23.2,29.50,NW,313,9.6,9.6,28,0.00,,---,0.00,VWS V13.01,2013-02-27 22:49:00,
2013-02-27 16:54:00,55.6,23.0,29.50,NW,313,9.6,9.6,28,0.00,,---,0.00,VWS V13.01,2013-02-27 22:54:00,
2013-02-27 16:59:00,55.8,23.2,29.50,NW,313,9.6,9.6,28,0.00,,---,0.00,VWS V13.01,2013-02-27 22:59:00,
2013-02-27 17:04:00,55.8,22.3,29.50,NW,313,9.6,9.6,27,0.00,,---,0.00,VWS V13.01,2013-02-27 23:04:00,
2013-02-27 17:09:00,55.6,22.1,29.50,NW,313,9.6,9.6,27,0.00,,---,0.00,VWS V13.01,2013-02-27 23:09:00,
2013-02-27 17:14:00,55.6,22.1,29.50,NW,305,8.3,8.3,27,0.00,,---,0.00,VWS V13.01,2013-02-27 23:14:00,
2013-02-27 17:19:00,55.4,22.0,29.50,NW,305,8.3,8.3,27,0.00,,---,0.00,VWS V13.01,2013-02-27 23:19:00,
2013-02-27 17:24:00,55.2,22.7,29.50,WNW,294,11.0,11.0,28,0.00,,---,0.00,VWS V13.01,2013-02-27 23:24:00,
2013-02-27 17:29:00,55.2,22.7,29.50,West,279,10.5,11.0,28,0.00,,---,0.00,VWS V13.01,2013-02-27 23:29:00,
2013-02-27 17:34:00,55.0,22.5,29.50,WNW,295,6.3,6.3,28,0.00,,---,0.00,VWS V13.01,2013-02-27 23:34:00,
2013-02-27 17:39:00,55.0,22.5,29.50,NW,312,10.1,10.1,28,0.00,,---,0.00,VWS V13.01,2013-02-27 23:39:00,
2013-02-27 17:44:00,54.7,21.4,29.50,WSW,250,5.8,5.8,27,0.00,,---,0.00,VWS V13.01,2013-02-27 23:44:00,
2013-02-27 17:49:00,54.5,21.2,29.50,WSW,250,5.8,5.8,27,0.00,,---,0.00,VWS V13.01,2013-02-27 23:49:00,
2013-02-27 17:54:00,54.5,21.2,29.50,WSW,256,4.0,4.0,27,0.00,,---,0.00,VWS V13.01,2013-02-27 23:54:00,
2013-02-27 17:59:00,54.5,21.2,29.50,WNW,293,3.1,3.1,27,0.00,,---,0.00,VWS V13.01,2013-02-27 23:59:00,
2013-02-27 18:04:00,54.5,21.2,29.50,West,260,8.1,8.1,27,0.00,,---,0.00,VWS V13.01,2013-02-28 00:04:00,
2013-02-27 18:09:00,54.5,21.2,29.50,West,260,8.1,8.1,27,0.00,,---,0.00,VWS V13.01,2013-02-28 00:09:00,
2013-02-27 18:14:00,54.5,21.2,29.50,West,260,8.1,8.1,27,0.00,,---,0.00,VWS V13.01,2013-02-28 00:14:00,
2013-02-27 18:22:00,52.5,19.5,29.53,WNW,303,10.1,10.1,27,0.00,,---,0.00,VWS V13.01,2013-02-28 00:22:00,
2013-02-27 18:27:00,52.3,19.4,29.53,WNW,294,5.8,6.3,27,0.00,,---,0.00,VWS V13.01,2013-02-28 00:27:00,
2013-02-27 18:32:00,52.0,19.1,29.53,WNW,303,11.0,11.0,27,0.00,,---,0.00,VWS V13.01,2013-02-28 00:32:00,
2013-02-27 18:37:00,51.8,18.9,29.53,WNW,291,5.8,13.2,27,0.00,,---,0.00,VWS V13.01,2013-02-28 00:37:00,
2013-02-27 18:42:00,51.6,19.6,29.53,West,271,7.6,10.1,28,0.00,,---,0.00,VWS V13.01,2013-02-28 00:42:00,
2013-02-27 18:47:00,51.6,19.6,29.53,NW,306,8.3,13.2,28,0.00,,---,0.00,VWS V13.01,2013-02-28 00:47:00,
2013-02-27 18:52:00,51.4,19.4,29.53,WNW,288,8.1,8.1,28,0.00,,---,0.00,VWS V13.01,2013-02-28 00:52:00,
2013-02-27 18:57:00,51.3,19.3,29.53,WNW,283,8.1,8.1,28,0.00,,---,0.00,VWS V13.01,2013-02-28 00:57:00,
2013-02-27 19:02:00,51.1,19.1,29.53,WNW,302,8.7,8.7,28,0.00,,---,0.00,VWS V13.01,2013-02-28 01:02:00,
2013-02-27 19:07:00,50.9,19.0,29.56,WNW,299,6.3,13.2,28,0.00,,---,0.00,VWS V13.01,2013-02-28 01:07:00,
2013-02-27 19:12:00,50.7,18.8,29.56,WNW,283,5.4,7.6,28,0.00,,---,0.00,VWS V13.01,2013-02-28 01:12:00,
2013-02-27 19:17:00,50.5,18.7,29.56,WNW,284,8.7,10.1,28,0.00,,---,0.00,VWS V13.01,2013-02-28 01:17:00,
2013-02-27 19:22:00,50.4,18.5,29.56,WNW,303,8.1,8.3,28,0.00,,---,0.00,VWS V13.01,2013-02-28 01:22:00,
2013-02-27 19:27:00,50.2,19.2,29.56,West,260,8.1,10.1,29,0.00,,---,0.00,VWS V13.01,2013-02-28 01:27:00,
2013-02-27 19:32:00,50.0,19.0,29.56,NW,319,8.3,13.2,29,0.00,,---,0.00,VWS V13.01,2013-02-28 01:32:00,
2013-02-27 19:37:00,50.0,19.0,29.56,WSW,252,8.7,13.2,29,0.00,,---,0.00,VWS V13.01,2013-02-28 01:37:00,
2013-02-27 19:42:00,49.8,18.9,29.56,West,275,11.0,11.0,29,0.00,,---,0.00,VWS V13.01,2013-02-28 01:42:00,
2013-02-27 19:47:00,49.8,19.6,29.56,WNW,282,8.3,8.3,30,0.00,,---,0.00,VWS V13.01,2013-02-28 01:47:00,
2013-02-27 19:52:00,49.6,19.5,29.56,WNW,282,8.3,8.3,30,0.00,,---,0.00,VWS V13.01,2013-02-28 01:52:00,
2013-02-27 19:57:00,49.6,19.5,29.56,WNW,294,8.7,8.7,30,0.00,,---,0.00,VWS V13.01,2013-02-28 01:57:00,
2013-02-27 20:02:00,49.5,19.3,29.56,WNW,294,8.7,8.7,30,0.00,,---,0.00,VWS V13.01,2013-02-28 02:02:00,
2013-02-27 20:07:00,49.1,19.8,29.56,WNW,294,8.7,8.7,31,0.00,,---,0.00,VWS V13.01,2013-02-28 02:07:00,
2013-02-27 20:12:00,49.1,19.8,29.56,WNW,294,8.7,8.7,31,0.00,,---,0.00,VWS V13.01,2013-02-28 02:12:00,
2013-02-27 20:17:00,48.9,19.6,29.56,NW,313,7.6,7.6,31,0.00,,---,0.00,VWS V13.01,2013-02-28 02:17:00,
2013-02-27 20:22:00,48.9,19.6,29.56,NW,313,7.6,7.6,31,0.00,,---,0.00,VWS V13.01,2013-02-28 02:22:00,
2013-02-27 20:27:00,48.7,19.5,29.56,NW,313,7.6,7.6,31,0.00,,---,0.00,VWS V13.01,2013-02-28 02:27:00,